Content
SEND FEEDBACK

Daily
Averages
Monthly
Summary
Switzerland

GENEVA, SWITZERLAND


Home > Europe > Switzerland
Elevation: 1364 feet     Latitude: 46 15N     Longitude: 006 08E

WEATHER
 
SELECT A DAY
Number of Records: 311,735;   Date Range: 7/1/96 - 9/30/14
 
SHARE

PRINT THIS DATA

[ ← Previous Day ]
WEATHER ALMANAC - MARCH 18, 2013
[ Next Day → ]
[ °C ]   °F
Weather ElementAverageHighLow
Temperature36.9 °F42.8 °F (2:20 pm)32 °F (4:50 am)
Dewpoint34.2 °F37.4 °F (12:20 am)31 °F (6:00 am)
Humidity89.3 %100 % (4:50 am)66 % (3:00 pm)
Barometer29.43 in29.54 in (11:00 pm)29.36 in (12:20 pm)
Wind Speed6.4 mph18.4 mph (10:50 pm)
Weather ElementAverage
Visibility5.1 mi
Wind DirectionSSE (168.8 °)

Weather ElementTotal
Precipitation---
Heating Degree Days27.6 (Base 65)
Averaged from 66 records on March 18, 2013
WEATHER CONDITIONS BREAKOUT
WIND DIRECTION BREAKOUT
WEATHER BY HOUR - MARCH 18, 2013
[ °C ]   °F
Local TimeTemperatureDewpointHumidityBarometerVisibilityWind DirectionWind SpeedGust SpeedPrecipitationEventsConditions
12:20 AM39.2 °F37.4 °F93 %29.47 in6.2 miSSW (200°)9.2 mphRainLight Rain
12:50 AM39.2 °F37.4 °F93 %29.47 in6.2 miSouth (190°)11.5 mphRainLight Rain
1:00 AM39.0 °F36.0 °F86 %29.51 in7.0 miSSW (200°)8.1 mphRainRain
1:20 AM39.2 °F37.4 °F93 %29.47 in6.2 miSSW (200°)4.6 mphRainLight Rain
1:50 AM39.2 °F37.4 °F93 %29.47 in6.2 miVariable1.2 mphRainLight Rain
2:00 AM39.0 °F37.0 °F90 %29.51 inNW (320°)2.3 mph
2:50 AM37.4 °F35.6 °F93 %29.44 in6.2 miVariable2.3 mphRainLight Rain
3:00 AM38.0 °F35.0 °F82 %29.50 inNW (320°)3.5 mph
3:20 AM37.4 °F33.8 °F87 %29.44 in6.2 miVariable3.5 mphRainLight Rain
3:50 AM35.6 °F33.8 °F93 %29.44 in5.0 miCalmRainRain
4:20 AM33.8 °F32.0 °F93 %29.44 in1.6 miNNE (20°)2.3 mphRainRain
4:50 AM32.0 °F32.0 °F100 %29.42 in0.7 miVariable1.2 mphSnowLight Snow
5:00 AM33.0 °F32.0 °F93 %29.49 inNNE (30°)2.3 mph
5:20 AM32.0 °F32.0 °F100 %29.42 in1.1 miCalmSnowLight Snow
5:50 AM32.0 °F32.0 °F100 %29.42 in1.0 miSW (230°)1.2 mphSnowLight Snow
6:00 AM32.0 °F31.0 °F97 %29.47 inWest (260°)1.2 mph
6:20 AM32.0 °F32.0 °F100 %29.42 in0.9 miSW (220°)2.3 mphSnowLight Snow
6:50 AM32.0 °F32.0 °F100 %29.42 in1.1 miCalmSnowLight Snow
7:00 AM33.0 °F31.0 °F92 %29.47 in1.0 miWSW (240°)2.3 mphSnowLight Snow
7:20 AM32.0 °F32.0 °F100 %29.39 in1.1 miCalmSnowLight Snow
7:50 AM32.0 °F32.0 °F100 %29.39 in0.9 miCalmSnowSnow
8:00 AM33.0 °F32.0 °F93 %29.47 inNorth1.2 mph
8:20 AM32.0 °F32.0 °F100 %29.39 in0.9 miCalmSnowSnow
8:50 AM32.0 °F32.0 °F100 %29.39 in1.2 miCalmSnowLight Snow
9:00 AM33.0 °F32.0 °F93 %29.47 inWSW (250°)2.3 mph
9:20 AM32.0 °F32.0 °F100 %29.39 in1.2 miVariable1.2 mphSnowLight Snow
9:50 AM33.8 °F32.0 °F93 %29.39 in1.9 miVariable1.2 mphSnowLight Snow
10:20 AM33.8 °F32.0 °F93 %29.39 in2.5 miVariable2.3 mphSnowLight Snow
10:50 AM33.8 °F33.8 °F100 %29.39 in3.7 miSW (230°)4.6 mphRainLight Rain
11:00 AM35.0 °F33.0 °F89 %29.44 inWSW (240°)4.6 mph
11:20 AM35.6 °F35.6 °F100 %29.39 in6.2 miSW (230°)4.6 mphMostly Cloudy
11:50 AM35.6 °F33.8 °F93 %29.39 in6.2 miWSW (250°)3.5 mphMostly Cloudy
12:00 PM37.0 °F33.0 °F82 %29.42 inWSW (250°)3.5 mph
12:20 PM37.4 °F35.6 °F93 %29.36 in6.2 miVariable2.3 mphMostly Cloudy
12:50 PM37.4 °F35.6 °F93 %29.36 in6.2 miSW (230°)5.8 mphMostly Cloudy
1:00 PM39.0 °F34.0 °F77 %29.42 in9.0 miSW (230°)5.8 mphPartly Cloudy
1:20 PM39.2 °F37.4 °F93 %29.36 in6.2 miSW (230°)6.9 mphMostly Cloudy
1:50 PM41.0 °F35.6 °F81 %29.36 in6.2 miSW (220°)8.1 mphMostly Cloudy
2:00 PM41.0 °F35.0 °F71 %29.41 inSW (230°)10.4 mph
2:20 PM42.8 °F37.4 °F81 %29.36 in6.2 miSW (230°)12.7 mphMostly Cloudy
2:50 PM41.0 °F35.6 °F81 %29.36 in6.2 miSW (220°)16.1 mphMostly Cloudy
3:00 PM42.0 °F35.0 °F66 %29.40 inSW (220°)13.8 mph
3:20 PM41.0 °F35.6 °F81 %29.36 in6.2 miSW (220°)13.8 mphMostly Cloudy
3:50 PM41.0 °F35.6 °F81 %29.36 in6.2 miSW (220°)17.3 mphMostly Cloudy
4:20 PM41.0 °F35.6 °F81 %29.39 in6.2 miSW (230°)12.7 mphMostly Cloudy
4:50 PM37.4 °F33.8 °F87 %29.42 in2.2 miWest (260°)12.7 mphRain-SnowSnow Showers
5:00 PM36.0 °F33.0 °F87 %29.46 inSW (230°)9.2 mph
5:20 PM35.6 °F33.8 °F93 %29.42 in4.3 miSSW (210°)9.2 mphRainLight Rain Showers
5:50 PM39.2 °F35.6 °F87 %29.39 in6.2 miSSW (200°)8.1 mphMostly Cloudy
6:00 PM39.0 °F35.0 °F82 %29.45 inSW (220°)8.1 mph
6:20 PM39.2 °F35.6 °F87 %29.42 in6.2 miWSW (250°)8.1 mphMostly Cloudy
6:50 PM39.2 °F35.6 °F87 %29.42 in6.2 miWest (260°)5.8 mphMostly Cloudy
7:00 PM38.0 °F34.0 °F81 %29.47 in28.0 miWSW (250°)6.9 mphPartly Cloudy
7:20 PM39.2 °F35.6 °F87 %29.42 in6.2 miWSW (240°)10.4 mphRainLight Rain Showers
7:50 PM39.2 °F35.6 °F87 %29.44 in6.2 miWSW (250°)5.8 mphRainLight Rain Showers
8:00 PM38.0 °F35.0 °F84 %29.49 inWSW (250°)8.1 mph
8:20 PM37.4 °F35.6 °F93 %29.44 in6.2 miSW (230°)9.2 mphMostly Cloudy
8:50 PM37.4 °F35.6 °F93 %29.44 in6.2 miNW (320°)3.5 mphRainLight Rain Showers
9:00 PM37.0 °F35.0 °F91 %29.51 inNNW (340°)2.3 mph
9:20 PM37.4 °F35.6 °F93 %29.44 in6.2 miVariable1.2 mphRainLight Rain Showers
9:50 PM39.2 °F35.6 °F87 %29.47 in6.2 miSSW (200°)17.3 mphRainRain Showers
10:20 PM39.2 °F33.8 °F81 %29.47 in6.2 miSSW (210°)17.3 mphMostly Cloudy
10:50 PM41.0 °F33.8 °F76 %29.47 in6.2 miSSW (210°)18.4 mphRainLight Rain Showers
11:00 PM39.0 °F33.0 °F73 %29.54 inSW (220°)17.3 mph
11:20 PM39.2 °F33.8 °F81 %29.50 in6.2 miSW (220°)15.0 mphRainLight Rain Showers
11:50 PM37.4 °F33.8 °F87 %29.50 in5.0 miSSW (210°)17.3 mphRainRain
Hourly data recorded from LSGG, located miles away from Geneva, Switzerland







STORIES FROM OUR PARTNERS